Time,TemperatureF,DewpointF,PressureIn,WindDirection,WindDirectionDegrees,WindSpeedMPH,WindSpeedGustMPH,Humidity,HourlyPrecipIn,Conditions,Clouds,dailyrainin,SoftwareType,DateUTC
2013-07-22 00:04:00,63.3,63.0,29.91,SW,225,5.0,8.0,99,0.00,,,0.84,meteohub,2013-07-22 05:04:00,
2013-07-22 00:10:00,63.3,63.0,29.91,SW,225,6.0,8.0,99,0.00,,,0.00,meteohub,2013-07-22 05:10:00,
2013-07-22 00:15:00,63.3,63.0,29.90,SW,225,4.0,8.0,99,0.00,,,0.00,meteohub,2013-07-22 05:15:00,
2013-07-22 00:20:00,63.3,63.0,29.91,West,270,5.0,7.0,99,0.00,,,0.00,meteohub,2013-07-22 05:20:00,
2013-07-22 00:25:00,63.3,63.0,29.91,SW,225,4.0,6.0,99,0.00,,,0.00,meteohub,2013-07-22 05:25:00,
2013-07-22 00:30:00,63.3,63.0,29.90,SW,225,3.0,6.0,99,0.00,,,0.00,meteohub,2013-07-22 05:30:00,
2013-07-22 00:35:00,63.3,63.0,29.90,SW,225,3.0,6.0,99,0.00,,,0.00,meteohub,2013-07-22 05:35:00,
2013-07-22 00:40:00,63.3,63.0,29.89,SW,225,4.0,4.0,99,0.00,,,0.00,meteohub,2013-07-22 05:40:00,
2013-07-22 00:45:00,63.3,63.0,29.89,SW,225,4.0,4.0,99,0.00,,,0.00,meteohub,2013-07-22 05:45:00,
2013-07-22 00:50:00,63.3,63.0,29.89,SW,225,3.0,4.0,99,0.00,,,0.00,meteohub,2013-07-22 05:50:00,
2013-07-22 00:55:00,63.3,63.0,29.89,SW,225,4.0,4.0,99,0.00,,,0.00,meteohub,2013-07-22 05:55:00,
2013-07-22 01:00:00,63.3,63.0,29.88,SW,225,4.0,4.0,99,0.00,,,0.00,meteohub,2013-07-22 06:00:00,
2013-07-22 01:06:00,63.3,63.0,29.89,SW,225,4.0,4.0,99,0.00,,,0.00,meteohub,2013-07-22 06:06:00,
2013-07-22 01:11:00,63.5,63.1,29.89,WSW,248,5.0,5.0,99,0.00,,,0.00,meteohub,2013-07-22 06:11:00,
2013-07-22 01:16:00,63.5,63.1,29.89,SW,225,6.0,6.0,99,0.00,,,0.00,meteohub,2013-07-22 06:16:00,
2013-07-22 01:21:00,63.5,63.1,29.88,SW,225,6.0,6.0,99,0.00,,,0.00,meteohub,2013-07-22 06:21:00,
2013-07-22 01:26:00,63.7,63.3,29.88,SW,225,6.0,8.0,99,0.00,,,0.00,meteohub,2013-07-22 06:26:00,
2013-07-22 01:31:00,63.5,63.1,29.88,SW,225,5.0,8.0,99,0.00,,,0.00,meteohub,2013-07-22 06:31:00,
2013-07-22 01:36:00,63.5,63.1,29.88,SW,225,5.0,8.0,99,0.00,,,0.00,meteohub,2013-07-22 06:36:00,
2013-07-22 01:41:00,63.5,63.1,29.87,SW,225,4.0,6.0,99,0.00,,,0.00,meteohub,2013-07-22 06:41:00,
2013-07-22 01:46:00,63.5,63.1,29.87,SW,225,6.0,6.0,99,0.00,,,0.00,meteohub,2013-07-22 06:46:00,
2013-07-22 01:51:00,63.3,63.0,29.87,SW,225,6.0,6.0,99,0.00,,,0.00,meteohub,2013-07-22 06:51:00,
2013-07-22 01:56:00,63.3,63.0,29.87,SW,225,5.0,6.0,99,0.00,,,0.00,meteohub,2013-07-22 06:56:00,
2013-07-22 02:01:00,63.3,63.0,29.87,SW,225,6.0,6.0,99,0.00,,,0.00,meteohub,2013-07-22 07:01:00,
2013-07-22 02:07:00,63.1,62.8,29.87,SW,225,6.0,6.0,99,0.00,,,0.00,meteohub,2013-07-22 07:07:00,
2013-07-22 02:12:00,63.0,62.6,29.86,SW,225,4.0,6.0,99,0.00,,,0.00,meteohub,2013-07-22 07:12:00,
2013-07-22 02:17:00,62.8,62.4,29.86,SW,225,4.0,6.0,99,0.00,,,0.00,meteohub,2013-07-22 07:17:00,
2013-07-22 02:22:00,63.0,62.6,29.86,SW,225,5.0,6.0,99,0.00,,,0.00,meteohub,2013-07-22 07:22:00,
2013-07-22 02:27:00,63.0,62.6,29.86,WSW,248,4.0,5.0,99,0.00,,,0.00,meteohub,2013-07-22 07:27:00,
2013-07-22 02:32:00,62.8,62.4,29.86,SW,225,4.0,6.0,99,0.00,,,0.00,meteohub,2013-07-22 07:32:00,
2013-07-22 02:37:00,63.0,62.6,29.86,West,270,4.0,6.0,99,0.00,,,0.00,meteohub,2013-07-22 07:37:00,
2013-07-22 02:42:00,63.0,62.6,29.87,SW,225,4.0,6.0,99,0.00,,,0.00,meteohub,2013-07-22 07:42:00,
2013-07-22 02:47:00,63.0,62.6,29.86,West,270,3.0,4.0,99,0.00,,,0.00,meteohub,2013-07-22 07:47:00,
2013-07-22 02:52:00,63.0,62.6,29.86,WSW,248,4.0,4.0,99,0.00,,,0.00,meteohub,2013-07-22 07:52:00,
2013-07-22 02:57:00,63.0,62.6,29.86,SW,225,5.0,5.0,99,0.00,,,0.00,meteohub,2013-07-22 07:57:00,
2013-07-22 03:02:00,62.8,62.4,29.86,SW,225,5.0,5.0,99,0.00,,,0.00,meteohub,2013-07-22 08:02:00,
2013-07-22 03:07:00,62.8,62.4,29.86,SW,225,5.0,5.0,99,0.00,,,0.00,meteohub,2013-07-22 08:07:00,
2013-07-22 03:12:00,62.6,62.2,29.86,SW,225,4.0,5.0,99,0.00,,,0.00,meteohub,2013-07-22 08:12:00,
2013-07-22 03:17:00,62.6,62.2,29.86,SW,225,5.0,6.0,99,0.00,,,0.00,meteohub,2013-07-22 08:17:00,
2013-07-22 03:22:00,62.6,62.2,29.86,West,270,4.0,6.0,99,0.00,,,0.00,meteohub,2013-07-22 08:22:00,
2013-07-22 03:27:00,62.4,62.1,29.86,SW,225,4.0,6.0,99,0.00,,,0.00,meteohub,2013-07-22 08:27:00,
2013-07-22 03:32:00,62.4,62.1,29.86,SW,225,3.0,5.0,99,0.00,,,0.00,meteohub,2013-07-22 08:32:00,
2013-07-22 03:37:00,62.4,62.1,29.86,SW,225,4.0,5.0,99,0.00,,,0.00,meteohub,2013-07-22 08:37:00,
2013-07-22 03:42:00,62.4,62.1,29.86,West,270,4.0,4.0,99,0.00,,,0.00,meteohub,2013-07-22 08:42:00,
2013-07-22 03:47:00,62.4,62.1,29.86,SW,225,3.0,4.0,99,0.00,,,0.00,meteohub,2013-07-22 08:47:00,
2013-07-22 03:52:00,62.4,62.1,29.87,West,270,2.0,4.0,99,0.00,,,0.00,meteohub,2013-07-22 08:52:00,
2013-07-22 03:57:00,62.2,61.9,29.86,South,180,2.0,4.0,99,0.00,,,0.00,meteohub,2013-07-22 08:57:00,
2013-07-22 04:02:00,62.2,61.9,29.86,South,180,0.0,4.0,99,0.00,,,0.00,meteohub,2013-07-22 09:02:00,
2013-07-22 04:07:00,62.2,61.9,29.86,South,180,0.0,2.0,99,0.00,,,0.00,meteohub,2013-07-22 09:07:00,
2013-07-22 04:12:00,62.1,61.7,29.86,SW,225,0.0,2.0,99,0.00,,,0.00,meteohub,2013-07-22 09:12:00,
2013-07-22 04:17:00,61.9,61.5,29.87,SW,225,0.0,0.0,99,0.00,,,0.00,meteohub,2013-07-22 09:17:00,
2013-07-22 04:22:00,61.9,61.5,29.87,West,270,0.0,0.0,99,0.00,,,0.00,meteohub,2013-07-22 09:22:00,
2013-07-22 04:27:00,62.1,61.7,29.86,SW,225,0.0,0.0,99,0.00,,,0.00,meteohub,2013-07-22 09:27:00,
2013-07-22 04:32:00,62.1,61.7,29.86,SW,225,0.0,0.0,99,0.00,,,0.00,meteohub,2013-07-22 09:32:00,
2013-07-22 04:37:00,62.1,61.7,29.86,South,180,0.0,0.0,99,0.00,,,0.00,meteohub,2013-07-22 09:37:00,
2013-07-22 04:42:00,62.1,61.7,29.86,East,90,0.0,0.0,99,0.00,,,0.00,meteohub,2013-07-22 09:42:00,
2013-07-22 04:47:00,61.9,61.5,29.86,NE,45,0.0,0.0,99,0.00,,,0.00,meteohub,2013-07-22 09:47:00,
2013-07-22 04:52:00,61.3,61.0,29.86,NE,45,0.0,0.0,99,0.00,,,0.00,meteohub,2013-07-22 09:52:00,
2013-07-22 04:57:00,61.3,61.0,29.85,NE,45,0.0,0.0,99,0.00,,,0.00,meteohub,2013-07-22 09:57:00,
2013-07-22 05:02:00,61.3,61.0,29.86,East,90,0.0,0.0,99,0.00,,,0.00,meteohub,2013-07-22 10:02:00,
2013-07-22 05:07:00,61.3,61.0,29.86,East,90,0.0,0.0,99,0.00,,,0.00,meteohub,2013-07-22 10:07:00,
2013-07-22 05:12:00,61.3,61.0,29.86,East,90,0.0,0.0,99,0.00,,,0.00,meteohub,2013-07-22 10:12:00,
2013-07-22 05:17:00,61.3,61.0,29.85,NE,45,0.0,0.0,99,0.00,,,0.00,meteohub,2013-07-22 10:17:00,
2013-07-22 05:22:00,61.3,61.0,29.85,NE,45,0.0,0.0,99,0.00,,,0.00,meteohub,2013-07-22 10:22:00,
2013-07-22 05:27:00,61.3,61.0,29.85,SE,135,2.0,0.0,99,0.00,,,0.00,meteohub,2013-07-22 10:27:00,
2013-07-22 05:32:00,61.3,61.0,29.85,East,90,1.0,2.0,99,0.00,,,0.00,meteohub,2013-07-22 10:32:00,
2013-07-22 05:37:00,61.3,61.0,29.84,SE,135,3.0,3.0,99,0.00,,,0.00,meteohub,2013-07-22 10:37:00,
2013-07-22 05:42:00,61.2,60.8,29.85,East,90,1.0,4.0,99,0.00,,,0.00,meteohub,2013-07-22 10:42:00,
2013-07-22 05:47:00,61.2,60.8,29.85,South,180,2.0,4.0,99,0.00,,,0.00,meteohub,2013-07-22 10:47:00,
2013-07-22 05:52:00,61.0,60.6,29.85,East,90,3.0,4.0,99,0.00,,,0.00,meteohub,2013-07-22 10:52:00,
2013-07-22 05:57:00,61.0,60.6,29.84,SE,135,3.0,4.0,99,0.00,,,0.00,meteohub,2013-07-22 10:57:00,
2013-07-22 06:02:00,60.8,60.4,29.84,South,180,1.0,4.0,99,0.00,,,0.00,meteohub,2013-07-22 11:02:00,
2013-07-22 06:07:00,60.8,60.4,29.84,South,180,1.0,4.0,99,0.00,,,0.00,meteohub,2013-07-22 11:07:00,
2013-07-22 06:12:00,60.8,60.4,29.85,East,90,4.0,4.0,99,0.00,,,0.00,meteohub,2013-07-22 11:12:00,
2013-07-22 06:17:00,60.8,60.4,29.85,East,90,0.0,4.0,99,0.00,,,0.00,meteohub,2013-07-22 11:17:00,
2013-07-22 06:22:00,60.8,60.4,29.84,East,90,0.0,4.0,99,0.00,,,0.00,meteohub,2013-07-22 11:22:00,
2013-07-22 06:27:00,61.2,60.8,29.84,South,180,2.0,4.0,99,0.00,,,0.00,meteohub,2013-07-22 11:27:00,
2013-07-22 06:32:00,61.2,60.8,29.85,East,90,0.0,2.0,99,0.00,,,0.00,meteohub,2013-07-22 11:32:00,
2013-07-22 06:37:00,61.3,61.0,29.85,South,180,3.0,3.0,99,0.00,,,0.00,meteohub,2013-07-22 11:37:00,
2013-07-22 06:42:00,61.5,61.2,29.85,SE,135,2.0,3.0,99,0.00,,,0.00,meteohub,2013-07-22 11:42:00,
2013-07-22 06:47:00,61.7,61.3,29.86,SE,135,2.0,4.0,99,0.00,,,0.00,meteohub,2013-07-22 11:47:00,
2013-07-22 06:52:00,61.9,61.5,29.86,South,180,4.0,4.0,99,0.00,,,0.00,meteohub,2013-07-22 11:52:00,
2013-07-22 06:57:00,62.1,61.7,29.86,South,180,0.0,4.0,99,0.00,,,0.00,meteohub,2013-07-22 11:57:00,
2013-07-22 07:02:00,62.4,62.1,29.85,SE,135,4.0,4.0,99,0.00,,,0.00,meteohub,2013-07-22 12:02:00,
2013-07-22 07:07:00,62.4,62.1,29.85,SE,135,3.0,4.0,99,0.00,,,0.00,meteohub,2013-07-22 12:07:00,
2013-07-22 07:12:00,62.6,62.2,29.85,East,90,4.0,5.0,99,0.00,,,0.00,meteohub,2013-07-22 12:12:00,
2013-07-22 07:17:00,62.6,62.2,29.85,South,180,4.0,6.0,99,0.00,,,0.00,meteohub,2013-07-22 12:17:00,
2013-07-22 07:22:00,62.8,62.4,29.85,SE,135,3.0,6.0,99,0.00,,,0.00,meteohub,2013-07-22 12:22:00,
2013-07-22 07:27:00,62.8,62.4,29.86,South,180,4.0,6.0,99,0.00,,,0.00,meteohub,2013-07-22 12:27:00,
2013-07-22 07:32:00,63.0,62.6,29.86,ESE,113,5.0,5.0,99,0.00,,,0.00,meteohub,2013-07-22 12:32:00,
2013-07-22 07:37:00,63.0,62.6,29.86,South,180,5.0,5.0,99,0.00,,,0.00,meteohub,2013-07-22 12:37:00,
2013-07-22 07:42:00,63.1,62.8,29.86,East,90,4.0,5.0,99,0.00,,,0.00,meteohub,2013-07-22 12:42:00,
2013-07-22 07:47:00,63.1,62.8,29.86,SE,135,4.0,5.0,99,0.00,,,0.00,meteohub,2013-07-22 12:47:00,
2013-07-22 07:52:00,63.3,63.0,29.86,South,180,6.0,6.0,99,0.00,,,0.00,meteohub,2013-07-22 12:52:00,
2013-07-22 07:57:00,63.1,62.8,29.85,South,180,4.0,7.0,99,0.00,,,0.00,meteohub,2013-07-22 12:57:00,
2013-07-22 08:02:00,63.3,63.0,29.85,SE,135,8.0,8.0,99,0.00,,,0.00,meteohub,2013-07-22 13:02:00,
2013-07-22 08:07:00,63.5,63.1,29.86,South,180,4.0,8.0,99,0.00,,,0.00,meteohub,2013-07-22 13:07:00,
2013-07-22 08:12:00,63.7,63.3,29.86,SW,225,5.0,8.0,99,0.00,,,0.00,meteohub,2013-07-22 13:12:00,
2013-07-22 08:17:00,63.9,63.5,29.85,SW,225,6.0,8.0,99,0.00,,,0.00,meteohub,2013-07-22 13:17:00,
2013-07-22 08:22:00,64.0,63.7,29.86,South,180,2.0,6.0,99,0.00,,,0.00,meteohub,2013-07-22 13:22:00,
2013-07-22 08:27:00,64.4,64.0,29.86,SW,225,4.0,6.0,99,0.00,,,0.00,meteohub,2013-07-22 13:27:00,
2013-07-22 08:32:00,64.4,64.0,29.86,SW,225,6.0,6.0,99,0.00,,,0.00,meteohub,2013-07-22 13:32:00,
2013-07-22 08:38:00,64.6,64.2,29.86,SW,225,6.0,6.0,99,0.00,,,0.00,meteohub,2013-07-22 13:38:00,
2013-07-22 08:43:00,64.6,64.2,29.86,South,180,4.0,8.0,99,0.00,,,0.00,meteohub,2013-07-22 13:43:00,
2013-07-22 08:48:00,64.9,64.6,29.86,SW,225,4.0,8.0,99,0.00,,,0.00,meteohub,2013-07-22 13:48:00,
2013-07-22 08:53:00,64.9,64.6,29.85,SW,225,6.0,8.0,99,0.00,,,0.00,meteohub,2013-07-22 13:53:00,
2013-07-22 08:58:00,65.3,64.9,29.86,South,180,5.0,6.0,99,0.00,,,0.00,meteohub,2013-07-22 13:58:00,
2013-07-22 09:03:00,65.8,65.5,29.85,SSE,158,5.0,6.0,99,0.00,,,0.00,meteohub,2013-07-22 14:03:00,
2013-07-22 09:08:00,66.2,65.8,29.86,SW,225,4.0,6.0,99,0.00,,,0.00,meteohub,2013-07-22 14:08:00,
2013-07-22 09:13:00,66.6,66.2,29.85,SW,225,8.0,8.0,99,0.00,,,0.00,meteohub,2013-07-22 14:13:00,
2013-07-22 09:18:00,66.9,66.6,29.85,West,270,7.0,8.0,99,0.00,,,0.00,meteohub,2013-07-22 14:18:00,
2013-07-22 09:24:00,67.3,66.9,29.85,West,270,5.0,8.0,99,0.00,,,0.00,meteohub,2013-07-22 14:24:00,
2013-07-22 09:29:00,67.6,67.3,29.85,SW,225,7.0,8.0,99,0.00,,,0.00,meteohub,2013-07-22 14:29:00,
2013-07-22 09:34:00,68.2,67.8,29.84,South,180,7.0,8.0,99,0.00,,,0.00,meteohub,2013-07-22 14:34:00,
2013-07-22 09:39:00,68.5,68.0,29.84,SW,225,4.0,8.0,98,0.00,,,0.00,meteohub,2013-07-22 14:39:00,
2013-07-22 09:44:00,69.4,68.0,29.83,South,180,8.0,8.0,95,0.00,,,0.00,meteohub,2013-07-22 14:44:00,
2013-07-22 09:49:00,70.5,68.7,29.84,SW,225,5.0,9.0,94,0.00,,,0.00,meteohub,2013-07-22 14:49:00,
2013-07-22 09:55:00,71.2,68.5,29.85,SW,225,8.0,9.0,91,0.00,,,0.00,meteohub,2013-07-22 14:55:00,
2013-07-22 10:00:00,72.0,68.9,29.84,SW,225,8.0,9.0,90,0.00,,,0.00,meteohub,2013-07-22 15:00:00,
2013-07-22 10:05:00,72.7,68.9,29.84,SW,225,6.0,9.0,88,0.00,,,0.00,meteohub,2013-07-22 15:05:00,
2013-07-22 10:10:00,72.9,69.1,29.84,WSW,248,6.0,9.0,88,0.00,,,0.00,meteohub,2013-07-22 15:10:00,
2013-07-22 10:15:00,73.4,68.5,29.84,West,270,10.0,10.0,85,0.00,,,0.00,meteohub,2013-07-22 15:15:00,
2013-07-22 10:20:00,74.1,69.3,29.83,SW,225,11.0,11.0,85,0.00,,,0.00,meteohub,2013-07-22 15:20:00,
2013-07-22 10:25:00,74.5,69.6,29.84,SW,225,8.0,11.0,85,0.00,,,0.00,meteohub,2013-07-22 15:25:00,
2013-07-22 10:30:00,74.8,68.9,29.84,SW,225,9.0,11.0,82,0.00,,,0.00,meteohub,2013-07-22 15:30:00,
2013-07-22 10:35:00,75.2,69.3,29.83,SW,225,11.0,11.0,82,0.00,,,0.00,meteohub,2013-07-22 15:35:00,
2013-07-22 10:41:00,75.4,69.4,29.84,West,270,7.0,11.0,82,0.00,,,0.00,meteohub,2013-07-22 15:41:00,
2013-07-22 10:46:00,75.6,69.6,29.84,NW,315,8.0,11.0,82,0.00,,,0.00,meteohub,2013-07-22 15:46:00,
2013-07-22 10:51:00,76.3,70.3,29.84,SW,225,7.0,11.0,82,0.00,,,0.00,meteohub,2013-07-22 15:51:00,
2013-07-22 10:56:00,76.1,68.7,29.84,SW,225,11.0,13.0,78,0.00,,,0.00,meteohub,2013-07-22 15:56:00,
2013-07-22 11:01:00,76.5,69.4,29.84,South,180,11.0,13.0,79,0.00,,,0.00,meteohub,2013-07-22 16:01:00,
2013-07-22 11:06:00,76.5,70.2,29.84,SW,225,8.0,13.0,81,0.00,,,0.00,meteohub,2013-07-22 16:06:00,
2013-07-22 11:11:00,77.4,70.3,29.84,SW,225,8.0,12.0,79,0.00,,,0.00,meteohub,2013-07-22 16:11:00,
2013-07-22 11:16:00,77.9,70.5,29.84,South,180,8.0,12.0,78,0.00,,,0.00,meteohub,2013-07-22 16:16:00,
2013-07-22 11:21:00,77.9,70.2,29.84,SW,225,11.0,12.0,77,0.00,,,0.00,meteohub,2013-07-22 16:21:00,
2013-07-22 11:27:00,78.3,69.3,29.84,WSW,248,8.0,12.0,74,0.00,,,0.00,meteohub,2013-07-22 16:27:00,
2013-07-22 11:32:00,78.3,68.5,29.84,SSW,203,7.0,11.0,72,0.00,,,0.00,meteohub,2013-07-22 16:32:00,
2013-07-22 11:37:00,78.1,68.7,29.83,SW,225,10.0,11.0,73,0.00,,,0.00,meteohub,2013-07-22 16:37:00,
2013-07-22 11:42:00,78.3,69.3,29.84,WSW,248,14.0,14.0,74,0.00,,,0.00,meteohub,2013-07-22 16:42:00,
2013-07-22 11:47:00,78.4,69.1,29.83,SW,225,9.0,14.0,73,0.00,,,0.00,meteohub,2013-07-22 16:47:00,
2013-07-22 11:52:00,78.6,68.4,29.83,SW,225,11.0,14.0,71,0.00,,,0.00,meteohub,2013-07-22 16:52:00,
2013-07-22 11:57:00,78.8,69.8,29.84,NW,315,10.0,14.0,74,0.00,,,0.00,meteohub,2013-07-22 16:57:00,
2013-07-22 12:02:00,79.0,70.0,29.83,SW,225,7.0,14.0,74,0.00,,,0.00,meteohub,2013-07-22 17:02:00,
2013-07-22 12:07:00,79.3,70.0,29.83,WSW,248,8.0,14.0,73,0.00,,,0.00,meteohub,2013-07-22 17:07:00,
2013-07-22 12:12:00,79.9,70.5,29.83,SW,225,7.0,14.0,73,0.00,,,0.00,meteohub,2013-07-22 17:12:00,
2013-07-22 12:17:00,79.9,70.0,29.83,South,180,6.0,12.0,72,0.00,,,0.00,meteohub,2013-07-22 17:17:00,
2013-07-22 12:22:00,79.9,70.5,29.83,SW,225,8.0,11.0,73,0.00,,,0.00,meteohub,2013-07-22 17:22:00,
2013-07-22 12:27:00,80.1,69.8,29.83,SW,225,8.0,12.0,71,0.00,,,0.00,meteohub,2013-07-22 17:27:00,
2013-07-22 12:32:00,80.4,68.9,29.83,West,270,8.0,12.0,68,0.00,,,0.00,meteohub,2013-07-22 17:32:00,
2013-07-22 12:37:00,80.2,69.1,29.83,SW,225,8.0,12.0,69,0.00,,,0.00,meteohub,2013-07-22 17:37:00,
2013-07-22 12:42:00,80.4,68.5,29.82,SW,225,13.0,13.0,67,0.00,,,0.00,meteohub,2013-07-22 17:42:00,
2013-07-22 12:47:00,80.6,69.1,29.82,South,180,10.0,15.0,68,0.00,,,0.00,meteohub,2013-07-22 17:47:00,
2013-07-22 12:53:00,80.8,69.6,29.81,West,270,8.0,15.0,69,0.00,,,0.00,meteohub,2013-07-22 17:53:00,
2013-07-22 12:58:00,80.8,69.3,29.81,West,270,12.0,15.0,68,0.00,,,0.00,meteohub,2013-07-22 17:58:00,
2013-07-22 13:03:00,80.6,69.1,29.81,NW,315,10.0,13.0,68,0.00,,,0.00,meteohub,2013-07-22 18:03:00,
2013-07-22 13:09:00,81.0,69.8,29.80,SW,225,5.0,12.0,69,0.00,,,0.00,meteohub,2013-07-22 18:09:00,
2013-07-22 13:12:00,81.1,70.0,29.80,SW,225,9.0,12.0,69,0.00,,,0.00,meteohub,2013-07-22 18:12:00,
2013-07-22 13:14:00,81.3,68.9,29.80,West,270,13.0,13.0,66,0.00,,,0.00,meteohub,2013-07-22 18:14:00,
2013-07-22 13:18:00,81.3,69.8,29.80,SW,225,9.0,13.0,68,0.00,,,0.00,meteohub,2013-07-22 18:18:00,
2013-07-22 13:22:00,81.5,68.2,29.79,South,180,11.0,13.0,64,0.00,,,0.00,meteohub,2013-07-22 18:22:00,
2013-07-22 13:32:00,81.9,68.9,29.80,SW,225,12.0,14.0,65,0.00,,,0.00,meteohub,2013-07-22 18:32:00,
2013-07-22 13:37:00,81.9,69.8,29.79,SW,225,8.0,14.0,67,0.00,,,0.00,meteohub,2013-07-22 18:37:00,
2013-07-22 13:42:00,84.0,71.1,29.79,South,180,12.0,12.0,65,0.00,,,0.00,meteohub,2013-07-22 18:42:00,
2013-07-22 13:48:00,81.5,69.1,29.79,SW,225,9.0,12.0,66,0.00,,,0.00,meteohub,2013-07-22 18:48:00,
2013-07-22 13:52:00,81.9,70.7,29.78,SW,225,6.0,12.0,69,0.00,,,0.00,meteohub,2013-07-22 18:52:00,
2013-07-22 13:53:00,81.9,70.7,29.78,SW,225,6.0,12.0,69,0.00,,,0.00,meteohub,2013-07-22 18:53:00,
2013-07-22 13:58:00,82.2,69.8,29.78,SW,225,13.0,13.0,66,0.00,,,0.00,meteohub,2013-07-22 18:58:00,
2013-07-22 14:03:00,82.2,70.2,29.78,SW,225,10.0,15.0,67,0.00,,,0.00,meteohub,2013-07-22 19:03:00,
2013-07-22 14:08:00,82.4,70.0,29.77,South,180,8.0,15.0,66,0.00,,,0.00,meteohub,2013-07-22 19:08:00,
2013-07-22 14:13:00,82.9,70.0,29.78,SW,225,11.0,15.0,65,0.00,,,0.00,meteohub,2013-07-22 19:13:00,
2013-07-22 14:19:00,83.5,71.4,29.78,SW,225,8.0,13.0,67,0.00,,,0.00,meteohub,2013-07-22 19:19:00,
2013-07-22 14:24:00,83.3,70.7,29.78,SW,225,8.0,13.0,66,0.00,,,0.00,meteohub,2013-07-22 19:24:00,
2013-07-22 14:29:00,83.5,70.5,29.77,WSW,248,11.0,13.0,65,0.00,,,0.00,meteohub,2013-07-22 19:29:00,
2013-07-22 14:34:00,83.5,70.9,29.78,South,180,8.0,13.0,66,0.00,,,0.00,meteohub,2013-07-22 19:34:00,
2013-07-22 14:39:00,83.1,71.4,29.77,SW,225,10.0,13.0,68,0.00,,,0.00,meteohub,2013-07-22 19:39:00,
2013-07-22 14:44:00,83.7,69.8,29.77,South,180,14.0,14.0,63,0.00,,,0.00,meteohub,2013-07-22 19:44:00,
2013-07-22 14:50:00,83.5,71.4,29.77,WSW,248,12.0,13.0,67,0.00,,,0.00,meteohub,2013-07-22 19:50:00,
2013-07-22 14:55:00,84.2,71.6,29.77,SW,225,10.0,15.0,66,0.00,,,0.00,meteohub,2013-07-22 19:55:00,
2013-07-22 15:01:00,84.2,71.2,29.76,SW,225,11.0,16.0,65,0.00,,,0.00,meteohub,2013-07-22 20:01:00,
2013-07-22 15:06:00,84.6,72.0,29.76,West,270,9.0,16.0,66,0.00,,,0.00,meteohub,2013-07-22 20:06:00,
2013-07-22 15:12:00,84.9,70.5,29.77,SSW,203,14.0,16.0,62,0.00,,,0.00,meteohub,2013-07-22 20:12:00,
2013-07-22 15:17:00,84.4,70.9,29.76,SW,225,15.0,15.0,64,0.00,,,0.00,meteohub,2013-07-22 20:17:00,
2013-07-22 15:18:00,84.2,71.2,29.76,West,270,8.0,15.0,65,0.00,,,0.00,meteohub,2013-07-22 20:18:00,
2013-07-22 15:22:00,84.0,69.6,29.77,SW,225,15.0,17.0,62,0.00,,,0.00,meteohub,2013-07-22 20:22:00,
2013-07-22 15:27:00,84.0,71.1,29.76,SW,225,11.0,17.0,65,0.00,,,0.00,meteohub,2013-07-22 20:27:00,
2013-07-22 15:32:00,83.8,70.3,29.76,NW,315,11.0,17.0,64,0.00,,,0.00,meteohub,2013-07-22 20:32:00,
2013-07-22 15:37:00,83.1,71.1,29.76,NW,315,11.0,17.0,67,0.00,,,0.00,meteohub,2013-07-22 20:37:00,
2013-07-22 15:42:00,83.7,69.8,29.77,WSW,248,16.0,16.0,63,0.00,,,0.00,meteohub,2013-07-22 20:42:00,
2013-07-22 15:43:00,83.7,70.2,29.77,SW,225,15.0,15.0,64,0.00,,,0.00,meteohub,2013-07-22 20:43:00,
2013-07-22 15:48:00,83.8,70.9,29.76,SW,225,12.0,17.0,65,0.00,,,0.00,meteohub,2013-07-22 20:48:00,
2013-07-22 15:53:00,83.1,70.5,29.77,West,270,13.0,17.0,66,0.00,,,0.00,meteohub,2013-07-22 20:53:00,
2013-07-22 15:58:00,83.7,70.7,29.77,SW,225,11.0,17.0,65,0.00,,,0.00,meteohub,2013-07-22 20:58:00,
2013-07-22 16:03:00,83.8,70.3,29.77,SW,225,15.0,16.0,64,0.00,,,0.00,meteohub,2013-07-22 21:03:00,
2013-07-22 16:08:00,84.0,70.0,29.77,West,270,15.0,16.0,63,0.00,,,0.00,meteohub,2013-07-22 21:08:00,
2013-07-22 16:13:00,83.1,71.4,29.76,West,270,11.0,15.0,68,0.00,,,0.00,meteohub,2013-07-22 21:13:00,
2013-07-22 16:18:00,83.7,70.7,29.76,SW,225,15.0,16.0,65,0.00,,,0.00,meteohub,2013-07-22 21:18:00,
2013-07-22 16:23:00,83.3,70.3,29.76,SW,225,11.0,16.0,65,0.00,,,0.00,meteohub,2013-07-22 21:23:00,
2013-07-22 16:29:00,83.5,71.4,29.75,West,270,17.0,17.0,67,0.00,,,0.00,meteohub,2013-07-22 21:29:00,
2013-07-22 16:34:00,84.2,71.2,29.75,NW,315,15.0,15.0,65,0.00,,,0.00,meteohub,2013-07-22 21:34:00,
2013-07-22 16:39:00,84.2,71.6,29.75,South,180,11.0,18.0,66,0.00,,,0.00,meteohub,2013-07-22 21:39:00,
2013-07-22 16:44:00,84.6,71.1,29.75,West,270,11.0,18.0,64,0.00,,,0.00,meteohub,2013-07-22 21:44:00,
2013-07-22 16:49:00,84.6,70.5,29.75,WSW,248,9.0,16.0,63,0.00,,,0.00,meteohub,2013-07-22 21:49:00,
2013-07-22 16:54:00,84.9,71.8,29.75,SW,225,9.0,16.0,65,0.00,,,0.00,meteohub,2013-07-22 21:54:00,
2013-07-22 16:59:00,84.4,71.2,29.75,NW,315,14.0,16.0,65,0.00,,,0.00,meteohub,2013-07-22 21:59:00,
2013-07-22 17:04:00,84.6,71.4,29.74,West,270,17.0,17.0,65,0.00,,,0.00,meteohub,2013-07-22 22:04:00,
2013-07-22 17:09:00,84.6,72.3,29.75,WSW,248,11.0,17.0,67,0.00,,,0.00,meteohub,2013-07-22 22:09:00,
2013-07-22 17:15:00,84.6,71.4,29.75,West,270,15.0,17.0,65,0.00,,,0.00,meteohub,2013-07-22 22:15:00,
2013-07-22 17:20:00,83.8,70.9,29.75,West,270,13.0,17.0,65,0.00,,,0.00,meteohub,2013-07-22 22:20:00,
2013-07-22 17:25:00,83.5,71.4,29.74,West,270,11.0,17.0,67,0.00,,,0.00,meteohub,2013-07-22 22:25:00,
2013-07-22 17:30:00,83.7,71.1,29.75,NW,315,13.0,17.0,66,0.00,,,0.00,meteohub,2013-07-22 22:30:00,
2013-07-22 17:35:00,83.1,70.5,29.75,NW,315,16.0,17.0,66,0.00,,,0.00,meteohub,2013-07-22 22:35:00,
2013-07-22 17:40:00,82.8,70.7,29.75,West,270,11.0,17.0,67,0.00,,,0.00,meteohub,2013-07-22 22:40:00,
2013-07-22 17:45:00,82.2,70.5,29.75,West,270,11.0,17.0,68,0.00,,,0.00,meteohub,2013-07-22 22:45:00,
2013-07-22 17:50:00,82.0,70.9,29.75,West,270,9.0,17.0,69,0.00,,,0.00,meteohub,2013-07-22 22:50:00,
2013-07-22 17:56:00,81.5,70.7,29.75,WSW,248,11.0,13.0,70,0.00,,,0.00,meteohub,2013-07-22 22:56:00,
2013-07-22 18:01:00,81.3,71.1,29.75,WSW,248,7.0,13.0,71,0.00,,,0.00,meteohub,2013-07-22 23:01:00,
2013-07-22 18:06:00,81.0,71.1,29.75,SW,225,9.0,13.0,72,0.00,,,0.00,meteohub,2013-07-22 23:06:00,
2013-07-22 18:11:00,81.0,71.4,29.75,SW,225,11.0,11.0,73,0.00,,,0.00,meteohub,2013-07-22 23:11:00,
2013-07-22 18:16:00,80.8,71.2,29.75,SW,225,8.0,14.0,73,0.00,,,0.00,meteohub,2013-07-22 23:16:00,
2013-07-22 18:21:00,80.8,71.8,29.74,West,270,7.0,14.0,74,0.00,,,0.00,meteohub,2013-07-22 23:21:00,
2013-07-22 18:26:00,80.6,71.6,29.74,SW,225,11.0,14.0,74,0.00,,,0.00,meteohub,2013-07-22 23:26:00,
2013-07-22 18:31:00,80.4,71.8,29.75,SW,225,8.0,11.0,75,0.00,,,0.00,meteohub,2013-07-22 23:31:00,
2013-07-22 18:37:00,80.2,72.0,29.75,SW,225,7.0,11.0,76,0.00,,,0.00,meteohub,2013-07-22 23:37:00,
2013-07-22 18:42:00,79.9,72.0,29.75,SW,225,7.0,11.0,77,0.00,,,0.00,meteohub,2013-07-22 23:42:00,
2013-07-22 18:47:00,79.7,72.1,29.74,SW,225,8.0,9.0,78,0.00,,,0.00,meteohub,2013-07-22 23:47:00,
2013-07-22 18:52:00,79.5,72.1,29.75,SW,225,9.0,9.0,78,0.00,,,0.00,meteohub,2013-07-22 23:52:00,
2013-07-22 18:57:00,79.5,72.5,29.75,NW,315,11.0,11.0,79,0.00,,,0.00,meteohub,2013-07-22 23:57:00,
2013-07-22 19:02:00,79.2,72.9,29.76,West,270,5.0,11.0,81,0.00,,,0.00,meteohub,2013-07-23 00:02:00,
2013-07-22 19:07:00,78.6,73.0,29.77,WSW,248,4.0,11.0,83,0.01,,,0.01,meteohub,2013-07-23 00:07:00,
2013-07-22 19:12:00,78.3,73.0,29.76,West,270,4.0,11.0,84,0.01,,,0.01,meteohub,2013-07-23 00:12:00,
2013-07-22 19:17:00,78.1,73.2,29.76,SW,225,3.0,7.0,85,0.02,,,0.01,meteohub,2013-07-23 00:17:00,
2013-07-22 19:22:00,77.7,73.9,29.75,South,180,0.0,4.0,88,0.02,,,0.02,meteohub,2013-07-23 00:22:00,
2013-07-22 19:27:00,77.5,73.8,29.77,West,270,2.0,4.0,88,0.02,,,0.02,meteohub,2013-07-23 00:27:00,
2013-07-22 19:32:00,77.5,73.8,29.76,West,270,0.0,3.0,88,0.02,,,0.02,meteohub,2013-07-23 00:32:00,
2013-07-22 19:37:00,77.4,73.9,29.76,East,90,0.0,2.0,89,0.02,,,0.02,meteohub,2013-07-23 00:37:00,
2013-07-22 19:42:00,77.4,74.1,29.76,NE,45,0.0,2.0,90,0.02,,,0.02,meteohub,2013-07-23 00:42:00,
2013-07-22 19:47:00,77.2,74.3,29.75,ENE,68,2.0,2.0,91,0.02,,,0.02,meteohub,2013-07-23 00:47:00,
2013-07-22 19:52:00,76.5,73.9,29.74,East,90,3.0,3.0,92,0.02,,,0.02,meteohub,2013-07-23 00:52:00,
2013-07-22 19:57:00,76.1,73.9,29.74,ENE,68,2.0,3.0,93,0.02,,,0.02,meteohub,2013-07-23 00:57:00,
2013-07-22 20:02:00,75.9,74.1,29.75,East,90,2.0,3.0,94,0.02,,,0.02,meteohub,2013-07-23 01:02:00,
2013-07-22 20:07:00,75.7,74.1,29.75,NE,45,2.0,3.0,95,0.01,,,0.02,meteohub,2013-07-23 01:07:00,
2013-07-22 20:12:00,75.6,73.9,29.75,East,90,0.0,3.0,95,0.01,,,0.02,meteohub,2013-07-23 01:12:00,
2013-07-22 20:17:00,75.4,73.8,29.74,East,90,0.0,3.0,95,0.00,,,0.02,meteohub,2013-07-23 01:17:00,
2013-07-22 20:22:00,75.4,73.8,29.75,South,180,1.0,2.0,95,0.00,,,0.02,meteohub,2013-07-23 01:22:00,
2013-07-22 20:27:00,75.0,68.0,29.78,NW,315,25.0,25.0,79,0.00,,,0.02,meteohub,2013-07-23 01:27:00,
2013-07-22 20:32:00,72.1,63.3,29.77,NE,45,12.0,25.0,74,0.00,,,0.02,meteohub,2013-07-23 01:32:00,
2013-07-22 20:37:00,70.3,62.4,29.77,North,0,6.0,25.0,76,0.00,,,0.02,meteohub,2013-07-23 01:37:00,
2013-07-22 20:42:00,70.2,62.6,29.77,North,0,12.0,25.0,77,0.00,,,0.02,meteohub,2013-07-23 01:42:00,
2013-07-22 20:47:00,67.1,63.7,29.76,North,0,29.0,40.0,89,0.02,,,0.05,meteohub,2013-07-23 01:47:00,
2013-07-22 21:33:00,67.8,63.1,29.77,West,270,24.0,40.0,85,0.02,,,0.05,meteohub,2013-07-23 02:33:00,
2013-07-22 21:38:00,66.6,62.2,29.75,WNW,293,18.0,32.0,86,0.72,,,0.73,meteohub,2013-07-23 02:38:00,
2013-07-22 21:43:00,66.2,61.2,29.76,NW,315,23.0,32.0,84,0.76,,,0.76,meteohub,2013-07-23 02:43:00,
2013-07-22 21:48:00,67.6,59.7,29.77,NW,315,8.0,32.0,76,0.76,,,0.76,meteohub,2013-07-23 02:48:00,
2013-07-22 21:53:00,68.0,61.2,29.77,SW,225,27.0,27.0,79,0.08,,,0.81,meteohub,2013-07-23 02:53:00,
2013-07-22 21:58:00,65.1,61.2,29.75,South,180,16.0,34.0,87,0.09,,,0.83,meteohub,2013-07-23 02:58:00,
2013-07-22 22:03:00,64.4,61.2,29.75,SW,225,11.0,34.0,89,0.09,,,0.83,meteohub,2013-07-23 03:03:00,
2013-07-22 22:08:00,64.2,61.0,29.75,SW,225,7.0,34.0,89,0.09,,,0.83,meteohub,2013-07-23 03:08:00,
2013-07-22 22:13:00,64.4,60.8,29.76,SW,225,8.0,20.0,88,0.09,,,0.83,meteohub,2013-07-23 03:13:00,
2013-07-22 22:19:00,64.6,61.0,29.76,North,0,8.0,11.0,88,0.09,,,0.83,meteohub,2013-07-23 03:19:00,
2013-07-22 22:24:00,64.6,61.0,29.75,North,0,8.0,11.0,88,0.09,,,0.83,meteohub,2013-07-23 03:24:00,
2013-07-22 22:29:00,64.8,61.7,29.75,West,270,10.0,11.0,90,0.09,,,0.83,meteohub,2013-07-23 03:29:00,
2013-07-22 22:34:00,64.8,62.1,29.75,West,270,12.0,12.0,91,0.09,,,0.83,meteohub,2013-07-23 03:34:00,
2013-07-22 22:39:00,64.9,61.9,29.74,WNW,293,14.0,14.0,90,0.09,,,0.83,meteohub,2013-07-23 03:39:00,
2013-07-22 22:44:00,64.8,62.1,29.75,SW,225,8.0,15.0,91,0.05,,,0.83,meteohub,2013-07-23 03:44:00,
2013-07-22 22:49:00,64.9,62.6,29.76,SW,225,10.0,15.0,92,0.05,,,0.83,meteohub,2013-07-23 03:49:00,
2013-07-22 22:54:00,64.9,62.2,29.76,West,270,7.0,14.0,91,0.00,,,0.83,meteohub,2013-07-23 03:54:00,
2013-07-22 22:59:00,64.8,62.4,29.78,South,180,11.0,14.0,92,0.00,,,0.83,meteohub,2013-07-23 03:59:00,
2013-07-22 23:01:00,64.6,62.2,29.77,South,180,13.0,14.0,92,0.00,,,0.83,meteohub,2013-07-23 04:01:00,
2013-07-22 23:02:00,64.6,62.2,29.77,South,180,13.0,14.0,92,0.00,,,0.83,meteohub,2013-07-23 04:02:00,
2013-07-22 23:07:00,63.9,61.9,29.78,SW,225,13.0,13.0,93,0.00,,,0.83,meteohub,2013-07-23 04:07:00,
2013-07-22 23:12:00,63.5,61.7,29.78,SW,225,6.0,13.0,94,0.00,,,0.83,meteohub,2013-07-23 04:12:00,
2013-07-22 23:17:00,63.3,61.5,29.78,SW,225,9.0,13.0,94,0.00,,,0.83,meteohub,2013-07-23 04:17:00,
2013-07-22 23:22:00,63.1,61.7,29.79,SW,225,11.0,13.0,95,0.00,,,0.83,meteohub,2013-07-23 04:22:00,
2013-07-22 23:27:00,63.0,61.9,29.79,SW,225,7.0,11.0,96,0.00,,,0.83,meteohub,2013-07-23 04:27:00,
2013-07-22 23:32:00,62.8,61.9,29.79,SSW,203,10.0,11.0,97,0.00,,,0.83,meteohub,2013-07-23 04:32:00,
2013-07-22 23:37:00,62.8,61.9,29.80,NW,315,8.0,11.0,97,0.00,,,0.83,meteohub,2013-07-23 04:37:00,
2013-07-22 23:42:00,63.0,62.1,29.80,West,270,8.0,11.0,97,0.00,,,0.83,meteohub,2013-07-23 04:42:00,
2013-07-22 23:47:00,63.3,61.9,29.79,NW,315,11.0,11.0,95,0.00,,,0.83,meteohub,2013-07-23 04:47:00,
2013-07-22 23:52:00,64.0,62.1,29.79,SW,225,8.0,11.0,93,0.00,,,0.83,meteohub,2013-07-23 04:52:00,
2013-07-22 23:57:00,64.4,62.1,29.79,West,270,7.0,11.0,92,0.00,,,0.83,meteohub,2013-07-23 04:57:00,